{"data":{"norad_id":61004,"intl_designator":"2024-158Q","name":"STARLINK-32336","alt_names":[],"object_type":"PAYLOAD","status":"ACTIVE","operator":null,"country":"US","launch_date":"2024-09-05","launch_site_code":"AFETR","launch_vehicle":null,"mission":null,"orbit_class":"UNKNOWN","rcs_meters":null,"size_class":null,"mass_kg":null,"dimensions":null,"purposes":["comms"],"wikipedia_slug":null,"has_3d_model":false,"image_url":null,"decayed_at":null,"tle_current":{"epoch":"2026-09-21T22:32:34.363968Z","epoch_age_seconds":67756,"freshness":"FRESH","line1":"1 61004U 24158Q   26264.93928662 -.00000139  00000+0  70380-5 0  9992","line2":"2 61004  53.1609 230.7354 0001670  84.1914 275.9279 15.34389041115749","mean_motion":15.34389041,"eccentricity":0.000167,"inclination_deg":53.1609,"raan_deg":230.7354,"arg_perigee_deg":84.1914,"mean_anomaly_deg":275.9279,"bstar":7.038e-6,"rev_number":11574,"period_min":93.848428366089,"perigee_km":461.59338709873,"apogee_km":463.87823861822,"semimajor_km":6840.8728128585,"source":"CELESTRAK","updated_at":"2026-09-22T09:00:49.297401Z"}}}